WS Maaseik 1 Meer informatie WS Maaseik 1


WS Maaseik 2 Meer informatie WS Maaseik 2


Regen radar Meer informatie rain snow radar


Bezoek onze andere website:

Vorige versie
weerstation Maaseik


Bezoek ook eens deze sites:

Weerstation Geleen



Het weer levert geen direct gevaar op.    Er zijn geen waarschuwingen afgegeven.

15 daagse weersverwachting Renens (CH)

  • Overzicht
  • Per uur
  • 15 dagen
  • Extra
  • Vergelijk
  • Kaarten
  • Dagkaart
  • Meer »
  • Info
  • Statistieken
  • Directe link
    Temp 6h Neerslag Wind  
 06:21     20:58    Daglengte: 14:37 Vandaag
14:00
19°
 
6
20:00
19°
 
4
 06:23     20:57    Daglengte: 14:34 Morgen
02:00
18°
 
3
08:00
18°
 
6
14:00
21°
 
6
20:00
21°
 
3
 06:24     20:56    Daglengte: 14:32 Zaterdag 07 Aug
02:00
16°
 
2
08:00
16°
 
2
14:00
19°
14.9 mm
2
20:00
17°
44.7 mm
3
 06:25     20:54    Daglengte: 14:29 Zondag 08 Aug
02:00
16°
44.1 mm
5
08:00
15°
62.0 mm
5
Locatie info
Region: Ouest Lausannois
Latitude: 46.5391°N
Longitude: 6.5794°E
441 masl
Postcode: 1020
Temp/Neerslag /Baro Onweer/Dauwpunt
    Temp Baro 1h Neerslag Dauwpunt Wind UV Bewolking  
 06:21     20:58    Daglengte: 14:37 Vandaag
13:00
19°
1012.6 hPa
49%
14.5°
6
Windvlaag: 5.2 m/s
51%
14:00
19°
1012.4 hPa
63%
14.5°
6
Windvlaag: 5.5 m/s
22%
15:00
20°
1012.0 hPa
17%
14.8°
6
Windvlaag: 5.3 m/s
9%
16:00
20°
1011.6 hPa
16%
14.9°
6
Windvlaag: 5.7 m/s
10%
17:00
20°
1011.1 hPa
17%
14.9°
5
Windvlaag: 5.5 m/s
15%
18:00
20°
1010.8 hPa
14%
15.0°
6
Windvlaag: 3.9 m/s
7%
19:00
20°
1010.7 hPa
17%
14.2°
5
Windvlaag: 3.6 m/s
9%
20:00
19°
1010.7 hPa
14%
13.7°
4
Windvlaag: 3.1 m/s
2%
21:00
19°
1011.2 hPa
18%
13.8°
4
Windvlaag: 2.5 m/s
10%
22:00
18°
1011.7 hPa
15%
14.0°
3
Windvlaag: 1.1 m/s
33%
23:00
18°
1012.0 hPa
29%
13.8°
3
Windvlaag: 0.8 m/s
70%
 06:23     20:57    Daglengte: 14:34 Morgen
00:00
18°
1011.5 hPa
81%
13.7°
2
Windvlaag: 1.3 m/s
75%
01:00
18°
1011.1 hPa
76%
13.5°
2
Windvlaag: 1.2 m/s
63%
02:00
18°
1010.3 hPa
54%
13.3°
3
Windvlaag: 1.7 m/s
65%
03:00
18°
1009.9 hPa
23%
13.4°
3
Windvlaag: 2.2 m/s
59%
04:00
18°
1009.6 hPa
21%
13.6°
5
Windvlaag: 2.8 m/s
61%
05:00
18°
1009.7 hPa
22%
14.2°
7
Windvlaag: 3.6 m/s
59%
06:00
18°
1010.1 hPa
20%
14.3°
7
Windvlaag: 8.1 m/s
53%
07:00
18°
1010.9 hPa
17%
14.6°
7
Windvlaag: 8.7 m/s
16%
08:00
18°
1011.3 hPa
69%
14.5°
6
Windvlaag: 8.3 m/s
36%
09:00
18°
1011.6 hPa
63%
14.1°
6
Windvlaag: 7.4 m/s
30%
10:00
18°
1011.5 hPa
26%
13.9°
7
Windvlaag: 6.9 m/s
27%
11:00
19°
1011.8 hPa
16%
13.5°
7
Windvlaag: 6.3 m/s
35%
12:00
20°
1011.7 hPa
14%
13.4°
6
Windvlaag: 5.2 m/s
14%
13:00
20°
1011.4 hPa
16%
14.1°
6
Windvlaag: 4.5 m/s
14%
14:00
21°
1011.2 hPa
14%
14.4°
6
Windvlaag: 4.3 m/s
46%
15:00
21°
1010.7 hPa
14%
13.9°
6
Windvlaag: 4.3 m/s
33%
16:00
21°
1010.3 hPa
15%
13.8°
5
Windvlaag: 3.9 m/s
19%
17:00
21°
1009.9 hPa
14%
13.2°
4
Windvlaag: 3.1 m/s
17%
18:00
21°
1009.6 hPa
14%
12.7°
4
Windvlaag: 2.8 m/s
10%
19:00
21°
1009.6 hPa
14%
12.3°
3
Windvlaag: 2.6 m/s
12%
20:00
21°
1009.6 hPa
14%
13.0°
3
Windvlaag: 2.3 m/s
24%
21:00
20°
1009.9 hPa
16%
13.7°
2
Windvlaag: 2 m/s
21%
22:00
19°
1010.1 hPa
18%
13.9°
2
Windvlaag: -0.3 m/s
20%
23:00
18°
1010.3 hPa
15%
14.1°
2
Windvlaag: -1.9 m/s
35%
 06:24     20:56    Daglengte: 14:32 Zaterdag 07 Aug
00:00
17°
1010.3 hPa
14%
13.9°
2
Windvlaag: -1.6 m/s
53%
01:00
17°
1010.2 hPa
14%
13.5°
2
Windvlaag: -0.6 m/s
45%
02:00
16°
1010.0 hPa
14%
13.0°
2
Windvlaag: -0.7 m/s
74%
03:00
16°
1009.4 hPa
14%
12.9°
2
Windvlaag: 0.4 m/s
57%
04:00
16°
1009.2 hPa
14%
13.0°
2
Windvlaag: 0.2 m/s
49%
05:00
16°
1008.8 hPa
14%
12.8°
2
Windvlaag: 0.3 m/s
55%
06:00
16°
1008.5 hPa
14%
12.9°
2
Windvlaag: 1.3 m/s
47%
07:00
16°
1008.4 hPa
25%
13.0°
2
Windvlaag: 1.4 m/s
53%
08:00
16°
1008.0 hPa
73%
13.1°
2
Windvlaag: 1.6 m/s
57%
09:00
17°
1007.7 hPa
82%
13.3°
3
Windvlaag: 3 m/s
60%
10:00
17°
1007.1 hPa
82%
13.1°
3
Windvlaag: 2.8 m/s
64%
11:00
18°
1006.5 hPa 2.5 mm
100%
10.0°
3
Windvlaag: 2.7 m/s
77%
12:00
18°
1006.3 hPa 4.1 mm
100%
9.6°
2
Windvlaag: 3.7 m/s
93%
13:00
18°
1006.1 hPa 4.0 mm
100%
12.4°
2
Windvlaag: 4 m/s
94%
14:00
19°
1005.8 hPa 4.3 mm
100%
13.9°
2
Windvlaag: 3.3 m/s
97%
15:00
18°
1005.8 hPa
95%
15.0°
2
Windvlaag: 4 m/s
100%
16:00
18°
1005.4 hPa 5.7 mm
88%
16.5°
2
Windvlaag: 4.2 m/s
100%
17:00
18°
1005.6 hPa 4.9 mm
100%
17.0°
3
Windvlaag: -2.5 m/s
100%
18:00
17°
1007.1 hPa 8.9 mm
100%
16.5°
3
Windvlaag: -8.6 m/s
100%
19:00
17°
1008.1 hPa 14.4 mm
100%
15.0°
3
Windvlaag: -5.5 m/s
100%
20:00
17°
1009.3 hPa 10.8 mm
100%
13.3°
3
Windvlaag: 5.4 m/s
99%
21:00
17°
1010.9 hPa 8.5 mm
100%
12.0°
5
Windvlaag: 3.8 m/s
98%
22:00
17°
1011.8 hPa 8.0 mm
100%
11.8°
5
Windvlaag: 3.3 m/s
99%
23:00
16°
1012.2 hPa 6.7 mm
100%
12.3°
5
Windvlaag: 2.9 m/s
96%
 06:25     20:54    Daglengte: 14:29 Zondag 08 Aug
00:00
17°
1012.4 hPa 10.4 mm
94%
12.6°
5
Windvlaag: 1.3 m/s
76%
01:00
17°
1012.6 hPa
41%
12.9°
5
Windvlaag: 1.8 m/s
48%
02:00
16°
1012.5 hPa 10.5 mm
32%
12.6°
5
Windvlaag: 3 m/s
38%
03:00
16°
1012.4 hPa 10.3 mm
21%
12.5°
3
Windvlaag: 3.3 m/s
55%
04:00
15°
1012.3 hPa
21%
12.5°
4
Windvlaag: 2.7 m/s
22%
05:00
15°
1012.5 hPa
24%
12.5°
4
Windvlaag: 2.8 m/s
21%
06:00
15°
1012.9 hPa 10.3 mm
24%
12.8°
5
Windvlaag: 2.9 m/s
29%
07:00
15°
1013.6 hPa 10.4 mm
27%
12.8°
5
Windvlaag: 3.1 m/s
52%
08:00
15°
1014.2 hPa 10.6 mm
32%
12.6°
5
Windvlaag: 3.5 m/s
57%
09:00
16°
1015.0 hPa
11%
-36.1°
0
Windvlaag: 0 m/s
60%
Temp/Neerslag /Baro Onweer/Dauwpunt
    Temp Baro Neerslag Dauwpunt Wind Bewolking  
 06:21     20:58    Daglengte: 14:37 Vandaag
14:00
19°
1012.4 hPa   14.5°
6
22%
17:00
20°
1011.1 hPa   14.9°
5
15%
20:00
19°
1010.7 hPa   13.7°
4
2%
23:00
18°
1012.0 hPa   13.8°
3
70%
 06:23     20:57    Daglengte: 14:34 Morgen
02:00
18°
1010.3 hPa   13.3°
3
65%
05:00
18°
1009.7 hPa   14.2°
7
59%
08:00
18°
1011.3 hPa   14.5°
6
36%
11:00
19°
1011.8 hPa   13.5°
7
35%
14:00
21°
1011.2 hPa   14.4°
6
46%
17:00
21°
1009.9 hPa   13.2°
4
17%
20:00
21°
1009.6 hPa   13.0°
3
24%
23:00
18°
1010.3 hPa   14.1°
2
35%
 06:24     20:56    Daglengte: 14:32 Zaterdag 07 Aug
02:00
16°
1010.0 hPa   13.0°
2
74%
05:00
16°
1008.8 hPa   12.8°
2
55%
08:00
16°
1008.0 hPa   13.1°
2
57%
11:00
18°
1006.5 hPa 2.5 mm 10.0°
3
77%
14:00
19°
1005.8 hPa 12.4 mm 13.9°
2
97%
17:00
18°
1005.6 hPa 10.5 mm 17.0°
3
100%
20:00
17°
1009.3 hPa 34.1 mm 13.3°
3
99%
23:00
16°
1012.2 hPa 23.2 mm 12.3°
5
96%
 06:25     20:54    Daglengte: 14:29 Zondag 08 Aug
02:00
16°
1012.5 hPa 20.9 mm 12.6°
5
38%
05:00
15°
1012.5 hPa 10.3 mm 12.5°
4
21%
08:00
15°
1014.2 hPa 31.3 mm 12.6°
5
57%
11:00
17°
1015.1 hPa   10.5°
3
0%
14:00
20°
1015.6 hPa   10.8°
5
0%
17:00
21°
1017.0 hPa 39.9 mm 11.1°
4
1%
20:00
19°
1018.2 hPa 40.1 mm 10.7°
2
0%
23:00
15°
1021.0 hPa 40.1 mm 9.5°
1
0%
 06:26     20:52    Daglengte: 14:26 Maandag 09 Aug
02:00
14°
1021.2 hPa 40.1 mm 8.9°
2
0%
05:00
14°
1021.0 hPa 40.1 mm 8.6°
1
1%
08:00
15°
1021.4 hPa 40.1 mm 10.0°
1
1%
11:00
18°
1022.2 hPa 40.1 mm 11.5°
0
1%
14:00
20°
1022.2 hPa 40.1 mm 11.8°
1
1%
17:00
21°
1021.7 hPa 40.1 mm 10.6°
1
0%
20:00
20°
1022.4 hPa 40.1 mm 11.5°
1
0%
23:00
16°
1024.2 hPa 40.1 mm 10.7°
2
0%
 06:28     20:51    Daglengte: 14:23 Dinsdag 10 Aug
02:00
15°
1024.8 hPa 40.1 mm 10.1°
2
0%
05:00
14°
1024.4 hPa 40.1 mm 10.1°
2
0%
08:00
15°
1024.7 hPa 40.1 mm 11.6°
2
0%
11:00
19°
1023.9 hPa 40.1 mm 13.5°
2
0%
14:00
22°
1022.4 hPa 40.1 mm 14.0°
2
0%
17:00
23°
1021.2 hPa 40.1 mm 13.4°
1
0%
20:00
21°
1020.7 hPa 40.1 mm 13.7°
1
0%
23:00
17°
1022.0 hPa 40.1 mm 13.2°
1
0%
 06:29     20:49    Daglengte: 14:20 Woensdag 11 Aug
02:00
16°
1022.0 hPa 40.1 mm 12.8°
1
0%
05:00
15°
1021.9 hPa 40.1 mm 12.5°
1
0%
08:00
16°
1022.2 hPa 40.1 mm 13.4°
1
0%
11:00
20°
1022.2 hPa 40.1 mm 15.2°
1
0%
14:00
22°
1021.8 hPa 40.1 mm 16.4°
1
0%
17:00
24°
1020.8 hPa 40.1 mm 16.1°
1
0%
20:00
23°
1021.1 hPa 40.1 mm 15.8°
0
1%
23:00
20°
1022.9 hPa 40.1 mm 14.0°
1
1%
 06:30     20:48    Daglengte: 14:18 Donderdag 12 Aug
02:00
19°
1022.5 hPa 40.1 mm 13.6°
1
1%
05:00
19°
1022.6 hPa 40.1 mm 14.1°
1
1%
08:00
19°
1023.0 hPa 40.2 mm 15.0°
1
1%
11:00
23°
1023.0 hPa   15.9°
0
0%
14:00
25°
1022.1 hPa 80.4 mm 17.6°
1
0%
20:00
24°
1021.2 hPa 80.6 mm 17.8°
1
0%
 06:31     20:46    Daglengte: 14:15 Vrijdag 13 Aug
02:00
20°
1022.6 hPa 80.7 mm 16.6°
1
0%
08:00
20°
1021.7 hPa 80.8 mm 16.8°
1
1%
14:00
26°
1019.3 hPa 80.8 mm 19.6°
2
1%
20:00
25°
1017.3 hPa 80.9 mm 20.4°
1
1%
 06:33     20:44    Daglengte: 14:11 Zaterdag 14 Aug
02:00
21°
1017.7 hPa 81.4 mm 16.9°
1
0%
08:00
20°
1016.7 hPa 86.3 mm 17.5°
2
1%
14:00
27°
1014.3 hPa 91.1 mm 19.1°
3
0%
20:00
24°
1013.8 hPa 92.7 mm 18.1°
2
0%
 06:34     20:43    Daglengte: 14:09 Zondag 15 Aug
02:00
19°
1014.6 hPa 92.8 mm 14.5°
0
0%
08:00
16°
1017.7 hPa 0.4 mm 14.2°
0
41%
14:00
24°
1015.7 hPa 0.2 mm 14.3°
2
35%
20:00
20°
1015.9 hPa 0.7 mm 16.3°
1
33%
 06:35     20:41    Daglengte: 14:06 Maandag 16 Aug
02:00
14°
1017.5 hPa 0.4 mm 13.1°
0
27%
08:00
15°
1017.5 hPa 0.1 mm 13.4°
0
37%
14:00
24°
1016.5 hPa 0.4 mm 15.1°
2
39%
20:00
19°
1017.2 hPa 0.7 mm 16.2°
1
38%
 06:36     20:39    Daglengte: 14:03 Dinsdag 17 Aug
02:00
15°
1019.1 hPa 0.5 mm 13.7°
0
30%
08:00
15°
1019.5 hPa 0.8 mm 13.9°
0
47%
14:00
24°
1018.2 hPa 0.6 mm 15.2°
1
40%
20:00
20°
1018.4 hPa 0.6 mm 16.1°
1
31%
 06:38     20:38    Daglengte: 14:00 Woensdag 18 Aug
02:00
15°
1019.8 hPa 0.7 mm 13.7°
1
33%
08:00
15°
1019.7 hPa 0.7 mm 13.8°
1
41%
14:00
24°
1017.9 hPa 0.5 mm 15.4°
2
42%
20:00
20°
1017.8 hPa 0.8 mm 16.0°
1
33%
 06:39     20:36    Daglengte: 13:57 Donderdag 19 Aug
02:00
15°
1019.2 hPa 0.6 mm 13.4°
1
38%
08:00
15°
1018.7 hPa 0.4 mm 13.6°
0
44%
14:00
24°
1016.8 hPa 0.4 mm 14.6°
1
42%
20:00
19°
1017.0 hPa 0.5 mm 15.9°
1
40%
 06:40     20:34    Daglengte: 13:54 Vrijdag 20 Aug
02:00
14°
1018.3 hPa   13.1°
1
36%
08:00
15°
1018.0 hPa 0.5 mm 13.1°
0
37%
  CAPE Lifted Index Hail Supercell Tornado SRH 3km CL BTM PRES CL TOP PRES Swiss DWD icon SMHI TS
 06:21     20:58    Daglengte: 14:37 Vandaag
13:00 185 J/kg 0.0 K 0 % 0 % 0 % 0 m²/s² 0 0 4.29 80
14:00 118 J/kg 0.9 K 0 % 0 % 0 % 0 m²/s² 0 0 5.07 2
15:00 97 J/kg 1.3 K 0 % 0 % 0 % 0 m²/s² 0 0 5.26 2
16:00 72 J/kg 1.2 K 0 % 0 % 0 % 0 m²/s² 0 0 4.89 1
17:00 77 J/kg 1.0 K 0 % 0 % 0 % 0 m²/s² 0 0 4.24 3
18:00 71 J/kg 0.9 K 0 % 0 % 0 % 0 m²/s² 0 0 4.23 1
19:00 55 J/kg 0.9 K 0 % 0 % 0 % 0 m²/s² 0 0 3.66 2
20:00 59 J/kg 1.0 K 0 % 0 % 0 % 0 m²/s² 0 0 2.77 2
21:00 41 J/kg 0.8 K 0 % 0 % 0 % 0 m²/s² 0 0 2.33 2
22:00 46 J/kg 0.6 K 0 % 0 % 0 % 0 m²/s² 0 0 1.95 3
23:00 2 J/kg 0.8 K 0 % 0 % 0 % 0 m²/s² 0 0 2.69 3
 06:23     20:57    Daglengte: 14:34 Morgen
00:00 0 J/kg 0.8 K 0 % 0 % 0 % 0 m²/s² 0 0 2 61
01:00 0 J/kg 0.3 K 0 % 0 % 0 % 0 m²/s² 0 0 2.4 3
02:00 1 J/kg 0.2 K 0 % 0 % 0 % 0 m²/s² 0 0 2.03 3
03:00 0 J/kg 0.4 K 0 % 0 % 0 % 0 m²/s² 0 0 1.6 2
04:00 0 J/kg -0.4 K 0 % 0 % 0 % 0 m²/s² 0 0 1.67 3
05:00 51 J/kg 0.5 K 0 % 0 % 0 % 0 m²/s² 0 0 4.1 3
06:00 98 J/kg 1.0 K 0 % 0 % 0 % 0 m²/s² 0 0 4.33 3
07:00 103 J/kg 1.8 K 0 % 0 % 0 % 0 m²/s² 0 0 5.4 2
08:00 63 J/kg 3.3 K 0 % 0 % 0 % 0 m²/s² 0 0 8.1 3
09:00 72 J/kg 3.6 K 0 % 0 % 0 % 0 m²/s² 0 0 8.94 3
10:00 78 J/kg 3.5 K 0 % 0 % 0 % 0 m²/s² 0 0 8.72 2
11:00 44 J/kg 4.0 K 0 % 0 % 0 % 0 m²/s² 0 0 9.1 3
12:00 30 J/kg 4.3 K 0 % 0 % 0 % 0 m²/s² 0 0 9.01 2
13:00 23 J/kg 3.5 K 0 % 0 % 0 % 0 m²/s² 0 0 8.09 2
14:00 17 J/kg 3.4 K 0 % 0 % 0 % 0 m²/s² 0 0 7.9 3
15:00 9 J/kg 2.7 K 0 % 0 % 0 % 0 m²/s² 0 0 7.32 3
16:00 3 J/kg 2.4 K 0 % 0 % 0 % 0 m²/s² 0 0 6.9 3
17:00 1 J/kg 2.1 K 0 % 0 % 0 % 0 m²/s² 0 0 6.96 3
18:00 1 J/kg 2.1 K 0 % 0 % 0 % 0 m²/s² 0 0 7.23 2
19:00 1 J/kg 2.1 K 0 % 0 % 0 % 0 m²/s² 0 0 7.08 2
20:00 1 J/kg 2.2 K 0 % 0 % 0 % 0 m²/s² 0 0 6.82 3
21:00 0 J/kg 2.7 K 0 % 0 % 0 % 0 m²/s² 0 0 6.36 3
22:00 0 J/kg 2.6 K 0 % 0 % 0 % 0 m²/s² 0 0 6.08 3
23:00 0 J/kg 2.8 K 0 % 0 % 0 % 0 m²/s² 0 0 6.37 3
 06:24     20:56    Daglengte: 14:32 Zaterdag 07 Aug
00:00 0 J/kg 3.1 K 0 % 0 % 0 % 0 m²/s² 0 0 6.97 3
01:00 0 J/kg 3.0 K 0 % 0 % 0 % 0 m²/s² 0 0 7.08 3
02:00 0 J/kg 2.4 K 0 % 0 % 0 % 0 m²/s² 0 0 6.69 3
03:00 0 J/kg 2.0 K 0 % 0 % 0 % 0 m²/s² 0 0 6.29 3
04:00 0 J/kg 2.0 K 0 % 0 % 0 % 0 m²/s² 0 0 6.2 2
05:00 0 J/kg 2.5 K 0 % 0 % 0 % 0 m²/s² 0 0 6.19 3
06:00 0 J/kg 2.6 K 0 % 0 % 0 % 0 m²/s² 0 0 5.57 3
07:00 0 J/kg 2.7 K 0 % 0 % 0 % 0 m²/s² 0 0 5.04 3
08:00 0 J/kg 2.8 K 0 % 0 % 0 % 0 m²/s² 0 0 4.78 61
09:00 0 J/kg 3.1 K 0 % 0 % 0 % 0 m²/s² 0 0 4.72 61
10:00 0 J/kg 2.1 K 0 % 0 % 0 % 0 m²/s² 0 0 3.06 61
11:00 0 J/kg 2.0 K 0 % 0 % 0 % 0 m²/s² 0 0 2.39 80
12:00 0 J/kg 1.3 K 0 % 0 % 0 % 0 m²/s² 0 0 1.33 80
13:00 13 J/kg -0.2 K 0 % 0 % 0 % 0 m²/s² 0 0 0.07 3
14:00 0 J/kg -1.0 K 0 % 0 % 0 % 0 m²/s² 0 0 -0.7 80
15:00 0 J/kg 0.4 K 0 % 0 % 0 % 0 m²/s² 0 0 0.4 3
16:00 1 J/kg 1.4 K 0 % 0 % 0 % 0 m²/s² 0 0 1.4 3
17:00 4 J/kg 2.1 K 0 % 0 % 0 % 0 m²/s² 0 0 2.1 80
18:00 12 J/kg 2.5 K 0 % 0 % 0 % 0 m²/s² 0 0 2.5 80
19:00 67 J/kg 2.0 K 0 % 0 % 0 % 0 m²/s² 0 0 2 65
20:00 28 J/kg 2.7 K 0 % 0 % 0 % 0 m²/s² 0 0 2.91 63
21:00 1 J/kg 2.6 K 0 % 0 % 0 % 0 m²/s² 0 0 3.74 63
22:00 2 J/kg 1.4 K 0 % 0 % 0 % 0 m²/s² 0 0 4.7 63
23:00 21 J/kg 0.8 K 0 % 0 % 0 % 0 m²/s² 0 0 3.83 80
 06:25     20:54    Daglengte: 14:29 Zondag 08 Aug
00:00 51 J/kg 0.4 K 0 % 0 % 0 % 0 m²/s² 0 0 3.16 61
01:00 108 J/kg 0.4 K 0 % 0 % 0 % 0 m²/s² 0 0 3.4 3
02:00 107 J/kg 0.8 K 0 % 0 % 0 % 0 m²/s² 0 0 4.61 2
03:00 99 J/kg 1.3 K 0 % 0 % 0 % 0 m²/s² 0 0 5.77 2
04:00 100 J/kg 1.4 K 0 % 0 % 0 % 0 m²/s² 0 0 5.42 1
05:00 99 J/kg 1.6 K 0 % 0 % 0 % 0 m²/s² 0 0 6.04 1
06:00 109 J/kg 2.0 K 0 % 0 % 0 % 0 m²/s² 0 0 6.2 1
07:00 99 J/kg 2.5 K 0 % 0 % 0 % 0 m²/s² 0 0 6.61 2
08:00 107 J/kg 2.4 K 0 % 0 % 0 % 0 m²/s² 0 0 6.72 2
09:00 0 J/kg 0.0 K 0 % 0 % 0 % 0 m²/s² 0 0 13.83 2
Temp Baro Wind Neerslag
  EWN Forecast EWN WRFDA DWD ICON FMI HIRLAM MET Norway GFS
 06:21     20:58    Daglengte: 14:37 Vandaag
14:00 18.8° 1012.4 hPa 6.4 m/s 0.0 mm 20.3° 1010.6 hPa 5.8 m/s 23.0 mm 18.6° 1012.1 hPa 4.2 m/s 1.5 mm 18.2° 1013.2 hPa 6.6 m/s 0.0 mm 18.1° 1012.5 hPa 4.1 m/s
17:00 20.0° 1011.1 hPa 5.4 m/s 0.0 mm 21.2° 1009.4 hPa 6.9 m/s 34.4 mm 20.0° 1010.8 hPa 5.0 m/s 0.0 mm 18.2° 1012.1 hPa 6.1 m/s 0.0 mm 20.8° 1010.9 hPa 5.2 m/s
20:00 19.3° 1010.7 hPa 4.4 m/s 0.0 mm 20.8° 1009.4 hPa 5.7 m/s 34.5 mm 18.8° 1010.8 hPa 3.1 m/s 0.0 mm 18.7° 1011.7 hPa 4.5 m/s 0.0 mm 19.3° 1011.2 hPa 4.9 m/s
23:00 18.0° 1012.0 hPa 2.8 m/s 0.0 mm 18.4° 1009.5 hPa 4.4 m/s 34.5 mm 16.8° 1012.4 hPa 1.6 m/s 0.0 mm 17.8° 1012.8 hPa 2.7 m/s 0.0 mm 16.1° 1011.8 hPa 2.3 m/s
 06:23     20:57    Daglengte: 14:34 Morgen
02:00 17.9° 1010.3 hPa 2.5 m/s 0.0 mm 18.0° 1008.1 hPa 4.7 m/s 34.5 mm 16.2° 1010.8 hPa 2.5 m/s 0.2 mm 17.9° 1010.6 hPa 1.2 m/s 0.0 mm 16.7° 1010.7 hPa 1.9 m/s
05:00 18.1° 1009.7 hPa 6.9 m/s 0.0 mm 17.7° 1007.6 hPa 8.1 m/s 34.5 mm 16.5° 1010.2 hPa 4.7 m/s 0.0 mm 18.3° 1009.9 hPa 7.1 m/s 0.0 mm 16.1° 1010.3 hPa 4.1 m/s
08:00 17.6° 1011.3 hPa 6.3 m/s 0.0 mm 17.1° 1008.9 hPa 6.4 m/s 34.8 mm 16.6° 1011.5 hPa 2.5 m/s 0.1 mm 17.5° 1011.3 hPa 6.5 m/s 0.0 mm 17.2° 1011.1 hPa 4.3 m/s
11:00 18.9° 1011.8 hPa 6.6 m/s 0.0 mm 18.8° 1009.4 hPa 6.8 m/s 35.1 mm 18.9° 1011.7 hPa 5.8 m/s 0.0 mm 18.5° 1012.0 hPa 6.6 m/s 0.0 mm 19.4° 1011.8 hPa 6.1 m/s
14:00 20.8° 1011.2 hPa 6.2 m/s 0.0 mm 20.1° 1009.3 hPa 7.0 m/s 35.1 mm 21.3° 1010.9 hPa 5.2 m/s 0.0 mm 19.1° 1011.6 hPa 6.1 m/s 0.0 mm 22.0° 1010.8 hPa 4.8 m/s
17:00 21.2° 1009.9 hPa 4.3 m/s 0.0 mm 21.5° 1007.8 hPa 5.3 m/s 35.1 mm 21.8° 1010.0 hPa 4.2 m/s 0.0 mm 20.7° 1010.3 hPa 6.1 m/s 0.0 mm 23.4° 1009.3 hPa 3.0 m/s
20:00 20.6° 1009.6 hPa 2.5 m/s 0.0 mm 21.8° 1007.5 hPa 4.1 m/s 35.1 mm 20.3° 1009.8 hPa 0.9 m/s 0.0 mm 20.3° 1010.5 hPa 2.6 m/s 0.0 mm 21.0° 1009.2 hPa 1.2 m/s
23:00 17.9° 1010.3 hPa 2.3 m/s 0.0 mm 18.4° 1007.9 hPa 2.2 m/s 35.1 mm 17.0° 1010.3 hPa 2.3 m/s 0.0 mm 17.6° 1012.4 hPa 2.4 m/s 0.0 mm 17.3° 1010.1 hPa 1.1 m/s
 06:24     20:56    Daglengte: 14:32 Zaterdag 07 Aug
02:00 16.3° 1010.0 hPa 1.8 m/s 0.0 mm 17.7° 1007.1 hPa 0.3 m/s 35.1 mm 15.2° 1010.0 hPa 1.8 m/s 0.0 mm 15.9° 1012.1 hPa 3.3 m/s 0.0 mm 15.6° 1010.1 hPa 1.1 m/s
05:00 15.7° 1008.8 hPa 2.1 m/s 0.0 mm 17.4° 1006.1 hPa 2.7 m/s 35.1 mm 15.1° 1008.7 hPa 1.8 m/s 0.0 mm 14.7° 1010.9 hPa 3.0 m/s 0.0 mm 14.7° 1008.6 hPa 1.8 m/s
08:00 16.0° 1008.0 hPa 2.3 m/s 0.0 mm 18.7° 1005.8 hPa 5.0 m/s 35.1 mm 15.2° 1007.9 hPa 2.9 m/s 0.1 mm 15.4° 1009.4 hPa 2.1 m/s 0.0 mm 16.0° 1006.9 hPa 2.1 m/s
11:00 17.8° 1006.5 hPa 3.2 m/s 2.5 mm 21.3° 1004.2 hPa 4.2 m/s 35.1 mm 16.0° 1007.4 hPa 2.8 m/s 1.4 mm 19.9° 1006.5 hPa 1.0 m/s
14:00 18.7° 1005.8 hPa 1.7 m/s 12.4 mm 19.3° 1004.5 hPa 5.4 m/s 35.6 mm 17.8° 1006.9 hPa 0.4 m/s 0.9 mm 20.6° 1006.1 hPa 2.1 m/s
17:00 18.0° 1005.6 hPa 3.1 m/s 10.5 mm 15.0° 1006.8 hPa 3.4 m/s 49.6 mm 17.6° 1005.4 hPa 0.9 m/s 0.8 mm 21.4° 1006.4 hPa 2.7 m/s
20:00 17.1° 1009.3 hPa 3.0 m/s 34.1 mm 17.2° 1007.3 hPa 4.6 m/s 88.7 mm 16.0° 1009.1 hPa 1.5 m/s 23.5 mm 16.2° 1009.0 hPa 1.1 m/s
23:00 16.4° 1012.2 hPa 4.9 m/s 23.2 mm 16.6° 1008.9 hPa 4.6 m/s 91.6 mm 15.1° 1012.6 hPa 3.5 m/s 7.6 mm 15.9° 1012.3 hPa 3.8 m/s
 06:25     20:54    Daglengte: 14:29 Zondag 08 Aug
02:00 16.4° 1012.5 hPa 4.7 m/s 20.9 mm 16.5° 1010.0 hPa 6.1 m/s 91.7 mm 15.4° 1012.7 hPa 2.3 m/s 0.1 mm 15.8° 1013.2 hPa 3.3 m/s
05:00 15.3° 1012.5 hPa 4.4 m/s 10.3 mm 14.8° 1010.6 hPa 4.8 m/s 91.7 mm 14.4° 1012.8 hPa 1.7 m/s 0.0 mm 14.9° 1013.1 hPa 3.6 m/s
08:00 15.4° 1014.2 hPa 5.2 m/s 31.3 mm 15.0° 1012.2 hPa 6.5 m/s 91.7 mm 14.4° 1014.6 hPa 0.8 m/s 0.0 mm 15.1° 1013.9 hPa 2.7 m/s
11:00 17.5° 1015.1 hPa 3.4 m/s 0.0 mm 17.4° 1015.1 hPa 3.5 m/s 0.0 mm 18.0° 1015.2 hPa 3.1 m/s 39.6 mm
14:00 19.8° 1015.6 hPa 4.8 m/s 0.0 mm 19.7° 1015.5 hPa 4.9 m/s 0.0 mm 19.9° 1016.0 hPa 4.4 m/s 39.7 mm
17:00 20.6° 1017.0 hPa 3.6 m/s 39.9 mm 20.6° 1017.0 hPa 3.6 m/s 39.9 mm
20:00 18.8° 1018.2 hPa 1.8 m/s 40.1 mm 18.8° 1018.2 hPa 1.8 m/s 40.1 mm
23:00 14.7° 1021.0 hPa 1.5 m/s 40.1 mm 14.7° 1021.0 hPa 1.5 m/s 40.1 mm
 06:26     20:52    Daglengte: 14:26 Maandag 09 Aug
02:00 13.8° 1021.2 hPa 1.6 m/s 40.1 mm 13.8° 1021.2 hPa 1.7 m/s 40.1 mm
05:00 14.0° 1021.0 hPa 1.0 m/s 40.1 mm 14.0° 1021.0 hPa 1.0 m/s 40.1 mm
08:00 14.8° 1021.4 hPa 1.1 m/s 40.1 mm 14.8° 1021.4 hPa 1.1 m/s 40.1 mm
11:00 18.1° 1022.2 hPa 0.3 m/s 40.1 mm 18.1° 1022.2 hPa 0.3 m/s 40.1 mm
14:00 20.0° 1022.2 hPa 0.9 m/s 40.1 mm 20.0° 1022.2 hPa 0.9 m/s 40.1 mm
17:00 21.4° 1021.7 hPa 0.8 m/s 40.1 mm 21.4° 1021.7 hPa 0.8 m/s 40.1 mm
20:00 19.9° 1022.4 hPa 0.6 m/s 40.1 mm 19.9° 1022.4 hPa 0.6 m/s 40.1 mm
23:00 15.9° 1024.2 hPa 1.6 m/s 40.1 mm 15.9° 1024.2 hPa 1.6 m/s 40.1 mm
 06:28     20:51    Daglengte: 14:23 Dinsdag 10 Aug
02:00 14.6° 1024.8 hPa 1.8 m/s 40.1 mm 14.6° 1024.8 hPa 1.8 m/s 40.1 mm
05:00 13.6° 1024.4 hPa 1.7 m/s 40.1 mm 13.6° 1024.4 hPa 1.7 m/s 40.1 mm
08:00 14.8° 1024.7 hPa 1.7 m/s 40.1 mm 14.8° 1024.7 hPa 1.7 m/s 40.1 mm
11:00 18.7° 1023.9 hPa 1.8 m/s 40.1 mm 18.7° 1023.9 hPa 1.8 m/s 40.1 mm
14:00 21.5° 1022.4 hPa 1.7 m/s 40.1 mm 21.5° 1022.4 hPa 1.7 m/s 40.1 mm
17:00 22.9° 1021.2 hPa 0.5 m/s 40.1 mm 22.9° 1021.2 hPa 0.5 m/s 40.1 mm
20:00 20.9° 1020.7 hPa 0.9 m/s 40.1 mm 20.9° 1020.7 hPa 0.9 m/s 40.1 mm
23:00 17.4° 1022.0 hPa 0.9 m/s 40.1 mm 17.4° 1022.0 hPa 0.9 m/s 40.1 mm
 06:29     20:49    Daglengte: 14:20 Woensdag 11 Aug
02:00 15.9° 1022.0 hPa 1.0 m/s 40.1 mm 15.9° 1022.0 hPa 1.0 m/s 40.1 mm
05:00 15.0° 1021.9 hPa 0.8 m/s 40.1 mm 15.0° 1021.9 hPa 0.8 m/s 40.1 mm
08:00 16.3° 1022.2 hPa 0.6 m/s 40.1 mm 16.3° 1022.2 hPa 0.6 m/s 40.1 mm
11:00 19.9° 1022.2 hPa 0.7 m/s 40.1 mm 19.9° 1022.2 hPa 0.7 m/s 40.1 mm
14:00 22.3° 1021.8 hPa 1.1 m/s 40.1 mm 22.3° 1021.8 hPa 1.2 m/s 40.1 mm
17:00 24.3° 1020.8 hPa 0.9 m/s 40.1 mm 24.3° 1020.8 hPa 0.9 m/s 40.1 mm
20:00 22.6° 1021.1 hPa 0.2 m/s 40.1 mm 22.6° 1021.1 hPa 0.2 m/s 40.1 mm
23:00 19.8° 1022.9 hPa 0.6 m/s 40.1 mm 19.8° 1022.9 hPa 0.6 m/s 40.1 mm
 06:30     20:48    Daglengte: 14:18 Donderdag 12 Aug
02:00 19.4° 1022.5 hPa 1.5 m/s 40.1 mm 19.4° 1022.5 hPa 1.5 m/s 40.1 mm
05:00 18.5° 1022.6 hPa 1.1 m/s 40.1 mm 18.5° 1022.6 hPa 1.1 m/s 40.1 mm
08:00 19.5° 1023.0 hPa 1.2 m/s 40.2 mm 19.5° 1023.0 hPa 1.2 m/s 40.2 mm
11:00 23.0° 1023.0 hPa 0.4 m/s 40.2 mm 23.0° 1023.0 hPa 0.4 m/s 40.2 mm
14:00 24.7° 1022.1 hPa 0.8 m/s 40.2 mm 24.7° 1022.1 hPa 0.8 m/s 40.2 mm
20:00 24.5° 1021.2 hPa 1.2 m/s 40.4 mm 24.5° 1021.2 hPa 1.2 m/s 40.4 mm
 06:31     20:46    Daglengte: 14:15 Vrijdag 13 Aug
02:00 20.3° 1022.6 hPa 0.9 m/s 40.4 mm 20.3° 1022.6 hPa 0.9 m/s 40.4 mm
08:00 20.3° 1021.7 hPa 0.8 m/s 40.4 mm 20.3° 1021.7 hPa 0.8 m/s 40.4 mm
14:00 25.8° 1019.3 hPa 1.5 m/s 40.4 mm 25.8° 1019.3 hPa 1.5 m/s 40.4 mm
20:00 25.4° 1017.3 hPa 0.6 m/s 40.5 mm 25.4° 1017.3 hPa 0.6 m/s 40.5 mm
 06:33     20:44    Daglengte: 14:11 Zaterdag 14 Aug
02:00 21.2° 1017.7 hPa 1.2 m/s 40.9 mm 21.2° 1017.7 hPa 1.2 m/s 40.9 mm
08:00 20.3° 1016.7 hPa 1.5 m/s 44.4 mm 20.3° 1016.7 hPa 1.5 m/s 44.4 mm
14:00 27.2° 1014.3 hPa 2.8 m/s 45.7 mm 27.2° 1014.3 hPa 2.8 m/s 45.7 mm
20:00 24.2° 1013.8 hPa 2.3 m/s 46.4 mm 24.2° 1013.8 hPa 2.3 m/s 46.4 mm
 06:34     20:43    Daglengte: 14:09 Zondag 15 Aug
02:00 19.4° 1014.6 hPa 0.5 m/s 46.4 mm 19.4° 1014.6 hPa 0.5 m/s 46.4 mm
08:00 15.7° 1017.7 hPa 0.2 m/s 0.4 mm
14:00 24.4° 1015.7 hPa 1.6 m/s 0.2 mm
20:00 19.8° 1015.9 hPa 1.2 m/s 0.7 mm
 06:35     20:41    Daglengte: 14:06 Maandag 16 Aug
02:00 14.4° 1017.5 hPa 0.3 m/s 0.4 mm
08:00 15.2° 1017.5 hPa 0.3 m/s 0.1 mm
14:00 23.7° 1016.5 hPa 1.7 m/s 0.4 mm
20:00 19.5° 1017.2 hPa 1.0 m/s 0.7 mm
 06:36     20:39    Daglengte: 14:03 Dinsdag 17 Aug
02:00 14.5° 1019.1 hPa 0.4 m/s 0.5 mm
08:00 15.0° 1019.5 hPa 0.4 m/s 0.8 mm
14:00 23.6° 1018.2 hPa 1.5 m/s 0.6 mm
20:00 19.6° 1018.4 hPa 0.8 m/s 0.6 mm
 06:38     20:38    Daglengte: 14:00 Woensdag 18 Aug
02:00 14.7° 1019.8 hPa 0.7 m/s 0.7 mm
08:00 15.3° 1019.7 hPa 0.5 m/s 0.7 mm
14:00 24.0° 1017.9 hPa 1.5 m/s 0.5 mm
20:00 19.5° 1017.8 hPa 0.8 m/s 0.8 mm
 06:39     20:36    Daglengte: 13:57 Donderdag 19 Aug
02:00 14.7° 1019.2 hPa 0.5 m/s 0.6 mm
08:00 15.2° 1018.7 hPa 0.4 m/s 0.4 mm
14:00 23.8° 1016.8 hPa 1.3 m/s 0.4 mm
20:00 19.2° 1017.0 hPa 0.9 m/s 0.5 mm
 06:40     20:34    Daglengte: 13:54 Vrijdag 20 Aug
02:00 14.4° 1018.3 hPa 0.6 m/s 0.0 mm
08:00 14.7° 1018.0 hPa 0.4 m/s 0.5 mm
FMI Hirlam - 7.5 km EWN WRFDA - 12 km DWD ICON - 7 km GFS - 25 km Basiskaart






























































Updatetijd (Europe/Brussels) Resolutie Lengte Stap
FMI Hirlam 07:00, 13:00, 19:00, 01:00 7.5 km 49h 1h
EWN WRFDA 04:15, 10:15, 16:15, 22:15 12 km 73h 1h
DWD ICON 11:45, 17:45, 23:45, 05:45 7 km 75h 1h
GFS 08:30, 14:30, 20:30, 02:30 25 km 237h 3h
30+ mm
25-30 mm
20-25 mm
15-20 mm
10-15 mm
6-10 mm
4-6 mm
2-4 mm
1-2 mm
0.5-1 mm
0.2-0.5 mm
0.1-0.2 mm
30+ mm
25-30 mm
20-25 mm
15-20 mm
10-15 mm
6-10 mm
4-6 mm
2-4 mm
1-2 mm
0.5-1 mm
0.2-0.5 mm
0.1-0.2 mm
Sneeuwval
Natte sneeuw
Hagel
Vorst
30+ mm
25-30 mm
20-25 mm
15-20 mm
10-15 mm
6-10 mm
4-6 mm
2-4 mm
1-2 mm
0.5-1 mm
0.2-0.5 mm
0.1-0.2 mm
Sneeuwval
Natte sneeuw
Hagel
Vorst
Onweer
50 mm
40 mm
30 mm
26 mm
22 mm
18 mm
14 mm
10 mm
9 mm
8 mm
7 mm
6 mm
5 mm
4.5 mm
4 mm
3.5 mm
3 mm
2.5 mm
2 mm
1.5 mm
1 mm
0.8 mm
0.6 mm
0.4 mm
0.2 mm
0.05 mm
35°
30°
25°
20°
15°
10°
-5°
-10°
-15°
-20°
-25°
-30°
-35°
33> m/s
29 m/s
25 m/s
21 m/s
17 m/s
14 m/s
11 m/s
8 m/s
5 m/s
3 m/s
0 m/s
2600 J/kg
2400 J/kg
2200 J/kg
2000 J/kg
1800 J/kg
1600 J/kg
1400 J/kg
1200 J/kg
1000 J/kg
800 J/kg
600 J/kg
400 J/kg
200 J/kg
70 dBZ
65 dBZ
60 dBZ
55 dBZ
50 dBZ
45 dBZ
40 dBZ
35 dBZ
30 dBZ
25 dBZ
20 dBZ
15 dBZ
10 dBZ
5 dBZ
-1 K
-2 K
-3 K
-4 K
-5 K
-6 K
-7 K
-8 K
-9 K
950 m²/s²
900 m²/s²
850 m²/s²
800 m²/s²
750 m²/s²
700 m²/s²
650 m²/s²
600 m²/s²
550 m²/s²
500 m²/s²
450 m²/s²
400 m²/s²
350 m²/s²
300 m²/s²
250 m²/s²
200 m²/s²
150 m²/s²
100 m²/s²
46 m/s
44 m/s
42 m/s
40 m/s
38 m/s
36 m/s
34 m/s
32 m/s
30 m/s
28 m/s
26 m/s
24 m/s
22 m/s
20 m/s
16 m/s
12 m/s
8 m/s
4 m/s
30 m/s
28 m/s
26 m/s
24 m/s
22 m/s
20 m/s
18 m/s
16 m/s
14 m/s
12 m/s
10 m/s
8 m/s
6 m/s
4 m/s
2 m/s
3.0
2.8
2.6
2.4
2.2
2.0
1.8
1.6
1.4
1.2
1.0
0.8
0.6
0.4
0.2
15
14
13
12
11
10
9
8
7
6
5
4
3
2
1
90%
80%
70%
60%
50%
40%
30%
20%
10%
42
40
38
36
34
32
30
28
26
24
22
20
18
16
14
12
90+ cm
80-90 cm
70-80 cm
60-70 cm
50-60 cm
40-50 cm
30-40 cm
20-30 cm
10-20 cm
1-10 cm
Sneeuwval
Natte sneeuw
Regen
>120 mm
115 mm
110 mm
105 mm
100 mm
95 mm
90 mm
85 mm
80 mm
75 mm
70 mm
65 mm
60 mm
55 mm
50 mm
45 mm
45 mm
40 mm
35 mm
30 mm
25 mm
20 mm
15 mm
10 mm
5 mm
0.1 mm
960 hPa
880 hPa
800 hPa
720 hPa
640 hPa
560 hPa
584 gpdm
568 gpdm